GFSGBSN_850_rhum_105.txt.gz
RH
12 13 10 9 10 8 8 8 7 6 6 7 6 6 7 7 7 7 6 6 6 7 8 8 7 13 56 39 34 22 22 21 11 19 34 34 28 21 20 19 18 18 16 16 16 14 13
13 13 10 12 14 8 8 8 7 8 8 7 7 8 8 8 9 9 8 7 7 7 11 10 12 20 79 51 28 21 20 25 21 12 26 27 26 22 18 18 20 18 17 18 17 16 16
13 12 12 15 10 9 9 9 9 10 9 9 9 10 10 10 10 9 9 8 7 9 11 11 25 46 72 39 28 20 21 24 19 21 19 25 26 24 21 21 20 20 21 18 17 18 16
25 20 16 12 10 11 10 10 10 13 12 10 11 11 11 11 11 12 14 13 14 14 14 16 38 93 56 32 32 32 27 24 25 25 20 22 26 31 23 21 20 20 22 25 18 15 15
24 19 16 15 14 12 12 13 12 12 10 10 11 12 11 10 16 20 24 21 26 22 34 58 86 90 50 43 48 39 38 36 33 31 22 21 22 31 28 28 26 23 26 24 20 14 15
24 18 16 14 12 13 14 15 7 10 10 13 12 13 17 25 28 30 30 40 40 50 82 75 64 78 55 30 32 39 44 43 48 40 26 20 21 19 20 27 36 28 26 22 20 17 16
46 18 23 18 14 13 9 8 10 13 20 18 18 26 25 33 39 38 50 42 39 37 50 40 27 43 26 20 21 22 20 35 45 40 30 17 21 19 16 22 23 22 21 21 18 15 18
44 43 32 30 18 10 7 10 15 19 17 19 28 27 25 28 32 51 60 50 59 73 76 48 40 37 33 35 40 36 24 27 35 38 24 14 18 12 12 15 23 24 26 23 16 13 19
63 37 27 20 12 8 13 16 14 18 20 29 31 29 37 33 58 66 59 60 59 64 63 34 25 28 32 46 45 40 30 25 28 34 25 14 13 9 11 15 22 27 27 24 16 14 14
72 55 30 20 13 16 25 20 20 24 32 35 37 31 41 32 67 55 46 55 65 75 74 18 29 38 48 44 42 39 34 25 22 31 26 17 10 14 14 17 20 30 23 19 16 20 24
93 72 36 33 28 41 31 24 27 39 43 45 47 38 37 65 79 56 52 63 72 87 54 13 24 42 37 38 33 37 31 23 22 26 25 24 15 16 18 19 17 24 16 17 19 23 21
96 57 46 41 45 41 29 28 35 46 48 48 48 37 34 58 64 60 72 81 69 76 42 14 16 28 30 23 24 28 31 34 18 25 23 23 19 19 17 17 23 18 22 24 23 23 34
80 78 91 60 47 38 28 31 41 49 51 51 46 32 38 77 65 81 90 60 46 55 13 18 27 21 22 33 45 41 44 38 26 39 67 33 39 22 19 26 24 23 32 52 55 47 39
70 97 94 76 55 43 36 33 46 49 54 57 44 34 75 78 80 94 74 42 41 17 18 18 22 23 38 59 56 69 37 31 22 22 36 44 87 39 31 28 31 34 35 39 49 40 28
94 95 76 94 68 42 45 45 50 50 59 54 56 70 68 80 86 88 56 48 30 25 24 29 28 39 52 46 66 97 58 26 20 23 83 43 76 51 35 28 36 53 47 28 56 44 46
99 95 65 89 66 39 49 57 57 55 61 50 74 58 65 49 85 81 51 42 31 25 27 31 59 42 77 66 89 67 40 21 20 21 44 37 60 45 37 34 34 42 30 53 49 50 41
100 94 78 91 58 43 56 65 58 62 61 56 76 46 74 57 91 58 69 39 34 33 33 45 56 72 83 87 90 66 30 17 16 27 25 38 44 52 42 43 40 48 52 52 45 51 55
99 95 94 90 56 58 70 72 61 68 64 74 64 56 69 89 73 46 46 39 39 41 42 45 53 77 97 92 90 92 61 19 19 20 26 25 39 62 64 28 26 28 35 39 50 55 44
98 93 76 84 75 56 70 74 67 70 64 76 49 40 67 85 61 50 37 37 36 45 43 56 85 96 98 100 97 99 69 44 33 28 32 29 46 66 87 46 43 47 36 42 58 54 57
94 82 93 81 89 71 62 76 77 73 64 82 74 70 45 55 61 48 48 42 44 48 54 58 89 99 92 100 100 99 94 65 48 44 50 42 45 51 55 42 41 52 49 43 45 58 51
91 88 80 94 94 68 66 77 80 75 71 83 81 62 51 61 51 51 45 39 44 62 56 58 91 57 82 96 88 97 96 71 52 60 47 46 63 66 50 41 40 44 46 44 49 40 46
96 83 86 93 90 73 68 77 81 78 71 77 56 50 50 38 44 46 53 44 41 44 62 64 56 51 49 58 72 90 79 75 98 72 64 51 40 34 39 33 35 39 30 24 23 27 33
93 83 92 90 90 69 67 79 82 82 85 72 66 65 52 43 31 36 49 41 40 36 40 37 48 51 48 58 64 67 56 56 51 53 74 66 40 39 47 27 26 33 31 29 28 56 60
85 89 92 92 88 76 66 81 90 88 86 88 68 60 48 51 31 35 34 33 33 31 37 38 47 53 49 64 54 42 48 42 39 40 39 36 38 30 39 36 40 39 30 29 47 59 63
85 83 87 86 84 90 75 84 93 92 91 90 83 74 55 60 35 33 39 36 35 34 35 39 47 53 64 54 49 36 41 45 33 36 36 36 33 39 37 33 39 50 42 44 45 87 59
91 91 93 87 90 86 78 85 91 90 94 93 95 88 85 67 41 45 44 37 39 39 39 38 47 60 61 44 47 41 47 42 38 35 30 34 34 35 40 37 65 79 48 42 38 92 75
81 89 82 90 92 83 87 88 97 95 91 98 97 90 92 85 54 55 48 51 44 40 41 39 50 56 58 58 60 48 45 34 43 41 43 43 45 50 49 44 69 93 72 54 77 99 94
76 85 82 95 85 85 82 89 97 97 91 93 95 90 98 92 65 64 65 61 52 47 51 44 55 58 65 66 62 63 61 50 54 43 53 59 75 60 52 53 86 98 58 85 99 98 99
77 79 80 91 85 90 88 83 89 92 86 94 96 99 99 100 74 95 89 83 76 68 64 50 56 66 63 73 70 69 71 56 54 90 48 76 71 79 91 96 98 100 97 99 97 96 99

GFSGBSN_850_rhum_111.txt.gz
RH
35 32 29 15 14 13 9 7 6 6 6 6 7 6 6 6 7 7 6 4 4 6 10 12 13 14 18 51 26 10 16 20 20 17 16 18 22 38 49 31 24 18 18 21 22 22 22
39 52 31 14 11 13 9 7 7 8 7 8 8 7 7 7 6 5 4 7 13 13 12 12 15 18 32 80 10 14 23 24 21 20 19 17 17 13 17 31 35 20 17 16 19 21 20
48 83 35 13 8 9 8 8 8 8 9 8 8 8 7 6 5 7 13 13 10 11 16 23 21 20 69 13 12 18 24 22 20 20 18 17 16 14 14 21 22 25 28 21 18 17 20
64 49 29 16 11 9 10 9 8 8 8 9 8 7 7 6 12 14 11 8 9 28 24 31 42 42 76 15 41 36 26 25 24 21 23 19 18 18 20 18 20 27 28 36 23 19 18
82 48 32 23 15 13 13 10 8 7 8 8 7 7 8 16 14 8 9 12 17 30 31 44 51 90 85 42 32 25 31 31 30 26 24 21 19 19 20 26 34 36 45 38 30 21 20
84 54 36 27 21 22 19 13 9 6 7 7 7 9 19 14 10 19 25 24 23 35 53 51 67 78 55 30 31 28 26 21 33 34 29 33 24 26 26 27 44 44 46 39 35 26 22
85 74 74 46 33 27 19 15 10 6 6 7 9 21 16 12 21 35 44 38 39 41 36 41 40 56 48 35 28 27 23 24 22 20 25 28 52 49 35 24 22 30 37 38 29 23 24
79 79 71 51 33 27 23 18 12 8 7 8 22 19 16 12 34 46 52 46 46 56 64 43 42 41 30 31 36 32 28 26 25 33 27 24 42 40 29 23 21 23 26 28 24 20 22
86 86 60 44 38 37 28 16 9 9 10 20 24 20 15 18 34 49 50 48 48 60 65 49 28 30 41 25 34 38 29 53 59 35 36 38 23 32 33 27 22 20 23 24 25 20 27
92 80 59 47 43 31 24 13 13 12 24 28 25 21 15 21 37 46 47 50 54 66 92 43 28 37 28 13 28 19 26 58 75 71 56 35 21 22 30 31 22 22 15 17 20 23 64
99 89 89 58 62 39 21 17 13 23 33 30 27 22 29 46 52 66 65 44 66 70 61 14 13 24 18 18 18 18 27 36 62 81 58 75 30 25 30 34 19 18 16 17 27 72 67
99 98 96 94 88 82 26 19 26 28 36 32 31 22 20 56 68 70 47 70 75 84 50 19 18 21 24 24 45 42 36 39 44 66 53 56 28 21 29 38 47 17 22 54 53 57 86
96 96 98 81 95 75 27 23 27 36 36 38 34 25 35 52 56 37 67 70 84 61 19 24 27 26 30 36 49 54 50 56 66 73 70 52 37 21 34 51 48 25 48 82 78 95 78
94 96 97 98 99 54 29 31 30 40 37 46 36 38 52 31 28 39 75 77 64 28 28 24 32 35 41 48 58 58 65 69 54 60 78 60 54 35 44 53 49 32 48 83 77 90 63
99 97 97 98 99 78 35 33 32 43 45 46 60 65 65 35 22 54 77 91 39 33 28 37 42 56 62 57 76 78 70 61 52 57 79 76 39 53 50 52 38 36 46 48 81 65 80
97 91 99 99 94 57 40 34 38 45 51 42 69 74 68 54 43 71 86 69 36 29 31 40 67 65 89 80 92 81 78 62 64 50 46 82 80 81 55 52 50 34 31 62 95 92 95
91 99 100 97 95 61 40 42 46 49 52 48 61 74 67 25 55 81 94 45 36 30 43 57 72 84 84 84 86 74 68 57 71 58 61 74 85 95 75 65 56 75 68 80 85 90 97
88 95 88 94 94 60 44 49 53 55 51 59 70 89 45 38 82 78 84 35 33 40 41 49 59 86 97 88 91 94 86 92 83 57 65 79 99 99 89 77 61 81 71 67 95 98 92
93 99 93 93 88 55 47 59 57 61 73 82 77 64 32 69 93 89 50 44 36 44 46 52 60 72 78 98 95 98 94 75 78 66 82 80 96 90 79 92 78 91 79 74 75 95 98
89 98 95 91 92 55 52 67 61 59 52 77 65 92 57 56 44 54 56 53 48 36 41 44 50 66 79 93 88 98 92 67 61 61 64 73 80 97 98 99 76 82 68 64 93 96 98
89 100 94 87 89 63 49 70 66 66 62 78 71 85 56 88 71 47 50 51 48 49 38 42 61 56 68 82 82 89 96 79 59 57 64 76 98 94 93 77 94 100 97 96 86 67 98
88 96 90 92 90 85 56 63 71 68 64 79 41 76 37 38 38 43 60 56 42 40 45 58 55 52 56 62 72 85 82 83 70 64 74 71 99 96 99 80 77 95 64 66 75 95 99
94 90 89 88 93 90 64 59 74 68 75 94 60 51 54 49 42 56 70 39 43 42 33 31 46 55 61 57 58 60 61 64 64 69 76 71 77 90 94 70 60 91 76 75 81 80 84
88 90 87 81 92 90 75 58 76 73 84 97 89 72 61 82 56 37 33 34 39 37 43 37 44 54 49 53 55 45 47 51 40 61 56 61 69 58 69 55 93 95 65 68 86 89 79
84 89 87 81 96 88 70 60 78 78 87 93 79 80 74 88 49 39 37 38 38 40 46 47 47 47 50 58 69 62 61 64 53 53 52 56 62 69 79 94 92 71 69 85 82 97 86
80 90 82 82 92 82 61 65 81 81 82 85 75 71 81 79 81 55 50 52 59 59 62 52 42 51 51 75 87 69 74 58 72 55 42 51 61 73 72 79 96 82 75 69 69 96 96
79 88 87 85 87 80 75 65 82 84 80 83 82 73 72 80 85 63 64 64 54 61 72 58 59 58 54 93 87 81 75 50 91 77 79 77 89 87 90 95 84 88 75 63 79 99 99
83 86 90 84 85 85 78 66 84 87 80 79 83 71 83 78 72 74 67 67 63 63 89 66 74 69 83 92 85 85 88 73 90 68 72 88 93 99 88 87 89 91 73 85 99 99 99
87 87 90 90 82 83 78 82 84 87 80 80 92 96 83 77 78 73 54 51 70 72 75 70 71 74 79 92 88 83 92 86 76 96 68 94 85 92 92 94 99 100 100 100 97 97 98

GFSGBSN_850_rhum_114.txt.gz
RH
94 85 63 36 23 11 9 6 6 6 4 4 4 5 5 5 6 5 4 3 7 10 11 11 11 11 14 26 6 11 18 20 24 25 21 19 21 32 59 40 29 22 16 15 17 20 27
98 93 70 45 27 11 8 6 5 5 6 6 6 5 4 5 4 3 4 9 9 9 9 11 19 25 28 61 7 18 28 27 28 26 29 25 22 16 17 18 31 36 30 24 19 17 17
100 99 84 50 32 13 8 6 6 6 6 5 5 4 4 3 3 6 10 9 8 9 17 28 37 51 66 19 20 19 19 17 23 26 29 26 22 19 17 23 18 22 36 34 30 25 21
100 100 93 53 42 14 11 7 7 6 5 5 6 4 4 4 8 10 8 10 10 20 27 35 41 75 66 30 36 33 35 32 30 29 22 24 22 24 22 20 21 23 27 36 27 27 25
100 99 95 63 34 20 15 9 8 6 6 5 4 4 4 10 10 9 12 14 21 28 32 37 51 87 65 39 42 30 32 29 25 22 30 29 26 23 22 29 33 32 31 31 33 26 28
100 100 97 72 54 34 12 10 9 9 8 5 5 5 9 12 14 25 25 18 26 38 39 47 64 75 43 36 25 28 20 23 28 22 20 28 29 32 31 36 44 31 35 37 46 32 30
100 99 99 77 63 29 17 15 14 11 7 6 7 9 14 11 27 50 30 20 18 31 20 24 23 46 25 31 27 18 24 29 31 27 30 23 30 38 46 36 29 29 29 32 33 29 30
100 100 99 80 55 32 38 26 17 10 10 10 10 17 14 12 39 51 46 42 55 41 57 28 31 42 35 34 38 16 28 35 38 51 56 49 41 26 21 35 40 34 33 29 24 24 25
100 100 95 89 67 59 47 32 18 21 14 7 24 18 14 21 48 53 49 53 51 41 66 35 26 28 33 26 18 17 29 40 66 68 65 75 60 31 24 25 43 43 36 29 25 19 18
99 98 98 96 87 75 52 30 36 18 10 22 24 18 19 21 42 48 44 49 50 65 75 22 29 35 23 21 23 22 24 35 70 62 56 82 68 59 44 34 27 77 34 25 23 26 38
100 97 100 96 86 56 45 48 21 14 16 30 23 21 32 40 50 46 43 56 64 70 45 19 18 19 24 25 28 35 37 38 47 47 62 57 54 61 75 30 25 54 54 31 22 26 52
100 100 100 98 88 59 59 37 29 21 34 29 30 22 26 50 47 42 49 72 69 54 38 26 21 27 35 34 32 36 43 45 41 55 66 65 46 50 50 32 28 38 54 45 65 80 81
99 100 100 99 96 94 60 44 37 34 35 39 31 25 39 44 33 33 69 69 55 51 25 30 32 34 41 42 48 48 54 62 72 80 81 57 53 42 33 33 34 56 70 87 76 90 75
100 99 99 99 98 90 64 42 37 36 42 41 34 29 30 24 25 40 71 68 46 30 33 27 36 42 53 53 61 63 74 77 57 60 70 89 69 36 32 33 41 48 54 68 71 87 73
100 99 99 96 94 99 92 54 35 44 42 43 54 41 34 36 26 60 77 73 40 35 31 45 48 67 74 58 68 79 77 71 59 63 84 89 55 49 46 52 60 63 65 48 76 87 82
100 97 93 96 95 93 93 38 42 44 51 48 64 63 61 56 50 76 81 54 39 32 44 51 76 71 89 73 77 86 67 61 84 79 55 73 80 58 57 65 55 73 46 70 90 84 94
98 92 96 95 95 95 64 40 46 48 50 38 62 70 59 58 55 73 85 53 37 44 43 62 71 82 89 94 79 88 70 68 80 89 71 78 78 62 78 68 71 61 63 80 70 93 99
84 99 99 96 94 75 44 54 52 50 46 64 76 91 39 36 76 89 88 42 36 45 44 50 57 76 92 91 85 94 94 98 75 79 86 76 98 93 96 86 67 81 68 66 82 89 93
95 99 97 97 91 70 64 51 52 54 56 69 77 62 52 80 87 89 58 48 44 46 47 50 59 71 73 96 94 95 89 68 70 68 76 80 99 91 96 94 83 79 72 59 95 100 99
94 87 84 89 90 58 50 56 52 59 75 73 71 90 58 72 55 59 58 53 55 39 42 43 55 61 78 92 94 88 95 70 65 67 64 78 80 92 94 87 95 99 70 72 91 98 94
94 99 94 95 90 53 51 54 57 56 53 71 76 82 60 87 76 51 51 52 47 45 39 40 61 58 69 83 83 93 86 72 70 59 68 78 92 98 94 98 95 100 100 99 98 98 93
97 94 94 93 86 50 45 59 62 56 70 74 57 71 39 47 51 46 63 56 40 41 48 52 53 60 55 66 73 83 75 77 85 71 76 69 92 100 99 97 89 96 95 97 99 98 95
88 94 90 90 90 69 42 62 63 57 68 93 81 59 53 63 49 66 78 46 41 45 38 39 51 57 65 58 56 57 61 65 68 77 76 71 78 95 97 98 85 84 97 94 93 95 94
92 92 88 86 93 86 57 52 64 61 84 87 80 74 65 81 64 49 43 34 40 46 55 51 47 54 52 46 53 51 57 62 60 65 64 67 72 72 97 87 86 99 94 76 87 96 90
91 91 85 89 90 89 71 48 66 69 90 84 78 74 75 88 72 61 59 59 48 47 52 53 47 55 51 60 78 67 65 58 60 52 56 59 74 81 96 90 95 75 83 90 85 97 99
87 83 80 83 82 87 73 46 70 74 78 82 74 74 74 76 84 70 61 58 69 75 73 58 44 46 53 83 90 77 85 66 73 66 54 60 66 85 92 85 95 94 80 75 72 94 98
90 90 87 90 88 79 60 50 74 77 84 80 71 65 66 69 74 71 74 69 60 69 78 72 64 65 61 92 90 92 83 70 92 87 85 85 90 92 91 88 90 89 80 74 81 99 99
83 89 84 82 82 76 64 59 78 80 81 79 79 73 65 69 67 71 64 65 68 71 92 69 74 73 87 93 93 92 97 82 91 76 82 92 98 92 85 82 89 97 75 92 99 98 99
80 86 87 82 80 77 73 55 79 84 79 80 77 68 70 67 64 70 53 52 65 73 75 73 87 85 85 91 84 82 96 94 84 98 76 94 87 91 93 94 99 100 100 98 93 91 79

GFSGBSN_850_rhum_117.txt.gz
RH
99 96 92 88 83 59 30 18 10 6 4 3 3 3 4 4 3 3 3 3 8 10 10 10 9 8 12 16 8 13 18 22 23 22 25 30 24 38 56 35 33 23 16 14 17 17 16
100 99 99 94 87 74 46 20 10 6 4 3 4 5 4 3 2 3 3 9 10 8 11 15 27 19 26 26 15 18 21 20 26 29 28 31 30 24 20 20 29 32 21 20 20 24 28
100 100 100 100 93 84 56 25 10 6 4 4 6 4 3 3 3 3 8 9 8 10 17 31 33 30 32 19 37 38 34 32 34 29 31 26 26 28 22 26 21 21 25 22 19 20 31
100 96 100 99 99 92 63 30 14 6 5 6 5 4 3 3 4 9 9 8 9 12 20 30 38 40 33 37 27 29 30 28 28 26 25 30 30 27 29 25 24 26 26 31 21 24 23
100 100 100 100 99 96 63 46 18 9 6 7 6 4 4 4 8 8 10 10 13 22 28 37 45 62 48 36 27 22 22 25 24 27 26 23 29 28 26 29 36 32 36 32 26 18 25
100 98 100 100 99 100 83 75 23 33 9 6 6 5 4 7 10 11 13 14 25 39 47 49 64 72 28 28 20 19 19 26 31 29 25 22 21 40 39 37 59 47 36 31 33 24 31
100 100 100 100 100 100 89 44 49 35 10 9 7 6 7 11 16 31 16 19 18 31 32 18 30 34 30 29 23 19 19 26 33 30 35 29 35 40 36 42 38 40 44 44 33 26 28
100 100 100 100 100 100 95 62 57 26 19 12 8 7 11 13 31 42 35 22 33 39 44 24 31 34 34 36 31 22 22 28 41 48 55 62 56 42 34 32 31 34 52 51 39 31 31
100 100 100 100 100 100 84 78 52 31 27 12 10 9 15 15 46 45 37 44 49 49 57 34 30 31 36 28 24 23 28 33 56 67 68 72 48 42 46 41 40 33 33 44 57 42 29
100 99 100 100 100 99 93 75 49 52 38 16 12 17 15 20 37 46 45 38 48 60 63 22 30 33 27 30 28 26 33 39 70 62 55 66 50 65 71 63 46 56 36 34 59 63 55
100 100 100 100 100 94 87 72 83 85 47 32 27 19 22 27 46 45 44 59 61 60 35 22 18 21 30 32 34 33 34 46 54 53 54 58 52 57 54 54 49 62 34 38 56 72 48
100 100 100 100 100 93 83 83 88 54 34 29 25 22 32 40 49 42 53 66 64 49 33 30 24 32 40 38 38 40 46 48 48 55 53 56 45 54 55 46 47 40 54 60 65 63 71
100 100 100 100 96 90 85 90 76 47 25 29 30 23 29 54 44 38 62 66 50 46 28 31 35 40 47 51 55 60 66 72 78 86 74 65 65 58 51 66 50 50 62 88 81 90 82
100 100 99 100 96 98 100 80 77 47 40 36 35 26 47 38 29 49 63 61 37 34 35 26 39 50 62 64 64 71 76 85 64 83 92 94 81 48 36 57 42 47 63 82 70 74 68
100 100 100 100 100 99 98 97 77 47 42 43 36 47 39 34 24 62 61 72 41 36 32 51 53 74 78 61 69 82 74 67 98 90 96 95 75 41 52 57 44 60 65 44 67 64 91
99 99 99 99 100 100 99 77 43 44 47 42 62 62 60 40 60 73 76 47 39 37 47 54 78 74 96 80 88 87 76 59 95 75 82 74 96 57 59 55 62 57 65 78 83 71 83
99 99 98 99 100 99 53 34 43 48 48 63 67 66 70 56 57 68 80 51 38 45 45 61 71 86 92 97 87 78 77 66 74 70 70 83 85 69 63 60 66 77 85 75 61 70 96
99 99 99 100 94 89 79 44 50 46 47 60 69 90 73 36 77 91 87 58 36 48 45 52 58 72 91 91 79 83 92 79 67 68 83 81 99 98 87 79 76 83 67 63 76 73 91
99 98 90 93 94 94 93 50 47 52 51 71 68 68 59 75 92 88 59 49 45 46 48 52 57 72 75 96 94 92 84 64 64 70 79 76 97 93 77 80 67 80 75 87 87 95 98
98 96 93 91 91 93 95 54 54 53 67 73 63 90 64 82 62 60 57 54 49 40 42 46 51 62 79 87 92 92 93 68 60 70 69 83 100 99 96 99 99 100 72 82 79 93 96
96 98 96 94 82 93 85 57 53 56 76 63 67 79 63 91 79 58 57 52 46 42 38 45 60 58 74 85 84 99 82 72 65 66 71 87 98 97 96 100 89 98 90 99 92 96 94
91 78 86 91 75 53 63 61 59 65 68 58 63 67 49 63 53 52 62 60 43 39 44 51 50 57 61 66 69 75 79 72 86 76 78 70 98 100 98 80 78 95 97 98 94 87 93
93 86 90 86 74 54 74 65 50 49 70 64 66 52 47 68 56 63 78 51 41 44 44 49 52 59 62 63 55 59 60 61 64 76 87 77 79 94 97 87 84 83 98 96 93 96 90
93 95 92 85 79 60 62 58 57 59 74 53 59 61 55 83 63 53 56 40 46 49 55 50 51 57 49 49 56 57 68 76 75 69 76 83 81 77 97 89 88 98 91 92 91 95 95
94 93 80 90 88 59 49 63 62 66 78 59 58 62 65 90 76 66 60 56 52 54 54 56 49 54 55 62 79 66 67 58 55 58 60 67 81 98 95 90 96 87 85 92 89 99 97
97 84 80 92 92 77 48 63 67 76 76 63 64 64 65 71 84 76 62 61 72 76 70 60 47 56 57 80 84 80 92 78 84 75 58 66 69 88 93 82 93 94 86 96 78 92 96
97 95 86 90 91 83 59 58 75 66 76 67 65 65 60 72 76 66 71 68 65 72 80 74 68 70 64 92 92 95 88 75 98 91 94 85 87 92 89 92 89 88 97 100 90 95 99
98 97 90 85 88 78 54 65 75 64 62 67 65 58 56 69 71 69 65 63 69 71 90 66 74 78 89 93 90 91 96 90 96 85 94 89 92 92 85 81 90 97 78 85 98 99 98
98 97 90 86 82 76 56 71 74 73 73 68 62 63 56 55 61 62 54 54 59 71 69 69 74 88 87 90 83 86 96 96 90 100 80 92 86 90 93 93 98 99 100 99 92 77 85